Total_Precipitation_Accumulation
0.77 0.70 0.59 0.61 0.56 0.58 0.64 0.68 0.70 0.69 0.70 0.65 0.61 0.60 0.59 0.55 0.54 0.53 0.64 0.82 1.14 1.25 1.01 0.78 0.61 0.52 0.54 0.53 0.50 0.56 0.61 0.65 0.70 0.70 0.70 0.67 0.69 0.59 0.45 0.36 0.36 0.35 0.37
0.71 0.73 0.68 0.69 0.70 0.67 0.67 0.66 0.64 0.73 0.75 0.70 0.64 0.61 0.58 0.49 0.51 0.58 0.68 0.80 0.86 0.99 1.17 1.08 0.89 0.74 0.64 0.55 0.51 0.50 0.54 0.56 0.60 0.63 0.68 0.64 0.60 0.52 0.43 0.35 0.39 0.37 0.34
0.68 0.73 0.76 0.76 0.77 0.78 0.77 0.78 0.77 0.82 0.77 0.74 0.71 0.62 0.54 0.47 0.47 0.55 0.58 0.66 0.57 0.53 0.77 1.01 1.05 0.95 0.85 0.75 0.63 0.51 0.46 0.47 0.51 0.56 0.64 0.63 0.52 0.45 0.39 0.38 0.39 0.40 0.35
0.70 0.79 0.80 0.83 0.89 0.81 0.78 0.84 0.89 0.92 0.88 0.85 0.83 0.68 0.51 0.50 0.50 0.53 0.58 0.61 0.58 0.43 0.47 0.55 0.63 0.73 0.90 0.95 0.82 0.60 0.48 0.40 0.43 0.50 0.62 0.56 0.46 0.43 0.42 0.41 0.39 0.40 0.39
0.88 0.95 0.99 1.00 1.03 1.04 0.96 0.85 0.88 0.93 0.99 0.98 0.86 0.76 0.61 0.57 0.60 0.57 0.67 0.68 0.62 0.51 0.52 0.42 0.37 0.39 0.52 0.71 0.77 0.72 0.61 0.44 0.39 0.44 0.52 0.49 0.41 0.38 0.37 0.35 0.33 0.32 0.33
1.15 1.25 1.23 1.18 1.23 1.31 1.31 1.10 1.13 1.08 1.01 1.05 0.95 0.86 0.79 0.72 0.71 0.69 0.70 0.74 0.76 0.64 0.60 0.50 0.38 0.25 0.31 0.45 0.60 0.67 0.66 0.53 0.42 0.40 0.42 0.42 0.38 0.38 0.33 0.28 0.28 0.29 0.30
1.49 1.64 1.60 1.58 1.57 1.52 1.48 1.43 1.53 1.48 1.22 1.12 1.23 1.17 1.04 0.86 0.79 0.74 0.70 0.76 0.86 0.84 0.83 0.68 0.55 0.40 0.29 0.30 0.35 0.48 0.61 0.64 0.59 0.53 0.46 0.48 0.42 0.35 0.34 0.33 0.30 0.30 0.32
1.71 1.75 1.93 2.03 1.99 2.06 2.03 1.84 1.95 1.95 1.62 1.38 1.52 1.73 1.45 1.25 0.88 0.75 0.76 0.75 0.84 0.94 1.01 0.86 0.70 0.56 0.47 0.43 0.30 0.34 0.42 0.59 0.71 0.66 0.60 0.57 0.50 0.38 0.33 0.33 0.33 0.33 0.32
1.87 1.89 1.99 2.15 2.16 2.22 2.28 2.34 2.27 2.32 2.11 1.75 1.64 1.83 1.62 1.49 1.28 0.86 0.78 0.85 0.90 1.00 1.08 1.08 0.94 0.74 0.65 0.61 0.45 0.33 0.30 0.33 0.55 0.66 0.65 0.58 0.52 0.43 0.36 0.32 0.33 0.35 0.34
2.06 2.13 2.14 2.24 2.27 2.27 2.34 2.44 2.39 2.47 2.50 2.14 1.89 1.67 1.46 1.40 1.45 1.21 0.96 0.88 0.95 1.00 1.09 1.15 1.08 0.94 0.82 0.79 0.68 0.51 0.34 0.27 0.36 0.59 0.70 0.65 0.55 0.47 0.42 0.38 0.35 0.36 0.39
2.17 2.20 2.26 2.41 2.39 2.35 2.32 2.52 2.55 2.62 2.53 2.45 2.30 2.12 1.94 1.65 1.29 1.32 1.30 1.10 0.96 0.87 0.96 1.12 1.18 1.12 1.00 0.91 0.92 0.73 0.51 0.32 0.31 0.53 0.68 0.78 0.70 0.61 0.52 0.50 0.46 0.44 0.41
2.20 2.09 2.02 2.14 2.20 2.23 2.22 2.38 2.53 2.64 2.60 2.63 2.53 2.23 2.13 1.97 1.59 1.51 1.37 1.24 1.17 0.98 0.92 0.97 1.02 1.04 1.05 1.00 0.96 0.96 0.71 0.45 0.32 0.43 0.60 0.66 0.72 0.72 0.67 0.66 0.64 0.59 0.53
2.02 2.04 1.95 1.94 1.96 1.92 1.95 2.06 2.10 2.17 2.30 2.44 2.35 2.13 2.08 1.90 1.84 1.82 1.68 1.45 1.25 1.02 0.99 0.93 0.89 0.94 0.96 0.95 1.03 1.09 0.79 0.53 0.35 0.31 0.39 0.47 0.54 0.62 0.65 0.71 0.77 0.78 0.75
1.71 1.79 1.80 1.74 1.78 1.83 1.84 1.90 1.89 1.90 1.92 1.98 1.99 2.04 2.07 1.94 1.85 1.74 1.70 1.81 1.59 1.33 1.14 1.00 0.94 0.94 0.94 0.95 1.08 1.12 0.79 0.66 0.46 0.34 0.30 0.32 0.37 0.45 0.56 0.63 0.73 0.84 0.85
1.27 1.34 1.44 1.51 1.60 1.65 1.71 1.84 1.88 1.87 1.82 1.79 1.89 1.94 1.88 1.85 1.82 1.69 1.61 1.68 1.74 1.58 1.43 1.21 1.09 0.98 1.00 1.01 1.11 0.92 0.79 0.74 0.59 0.47 0.40 0.34 0.34 0.37 0.41 0.48 0.55 0.63 0.71
0.94 1.00 1.11 1.28 1.50 1.62 1.65 1.71 1.74 1.81 1.84 1.78 1.86 1.95 1.96 1.96 1.99 1.90 1.74 1.69 1.63 1.61 1.52 1.28 1.08 0.96 1.09 1.02 1.12 0.93 0.87 0.94 0.75 0.61 0.50 0.43 0.39 0.40 0.38 0.37 0.37 0.39 0.44
0.78 0.89 0.95 1.09 1.24 1.42 1.60 1.74 1.73 1.72 1.74 1.73 1.68 1.76 1.87 1.97 2.08 2.08 2.04 1.87 1.73 1.68 1.58 1.42 1.19 1.02 1.12 1.17 1.13 1.05 0.96 0.85 0.78 0.71 0.61 0.55 0.49 0.44 0.42 0.41 0.38 0.36 0.35
0.62 0.71 0.84 1.05 1.16 1.24 1.29 1.37 1.44 1.46 1.48 1.51 1.49 1.46 1.55 1.67 1.81 1.96 2.02 1.95 1.92 1.81 1.71 1.65 1.47 1.21 1.07 1.11 1.15 1.20 1.12 0.95 0.88 0.89 0.80 0.69 0.61 0.52 0.46 0.42 0.39 0.36 0.34
0.61 0.66 0.80 0.95 1.01 1.05 1.09 1.11 1.21 1.28 1.29 1.26 1.30 1.26 1.28 1.37 1.51 1.64 1.73 1.80 1.90 1.94 1.90 1.79 1.68 1.48 1.23 1.20 1.25 1.25 1.23 1.26 1.08 0.99 0.96 0.88 0.80 0.72 0.64 0.56 0.48 0.42 0.37
0.62 0.69 0.84 0.94 0.95 0.91 0.99 1.02 1.07 1.10 1.07 1.02 1.06 1.06 1.10 1.12 1.19 1.31 1.45 1.65 1.83 1.93 1.97 1.94 1.85 1.60 1.41 1.36 1.34 1.33 1.36 1.38 1.32 1.15 1.06 0.97 0.97 0.89 0.79 0.68 0.60 0.52 0.47
0.64 0.71 0.76 0.87 0.92 0.90 0.93 0.98 0.97 0.90 0.88 0.88 0.85 0.77 0.78 0.84 0.85 0.92 0.98 1.25 1.49 1.68 1.79 1.86 1.82 1.64 1.44 1.33 1.22 1.26 1.36 1.47 1.49 1.43 1.34 1.13 1.03 0.94 0.88 0.82 0.73 0.63 0.55
0.53 0.58 0.64 0.80 0.91 0.82 0.93 0.92 0.84 0.77 0.73 0.76 0.73 0.67 0.66 0.70 0.62 0.58 0.61 0.82 1.10 1.28 1.44 1.60 1.66 1.52 1.41 1.32 1.33 1.32 1.29 1.31 1.30 1.23 1.19 1.22 1.14 1.04 0.95 0.88 0.89 0.85 0.75
0.47 0.52 0.56 0.73 0.82 0.90 0.85 0.69 0.73 0.73 0.73 0.75 0.77 0.78 0.71 0.66 0.74 0.66 0.60 0.66 0.74 0.85 0.99 1.22 1.43 1.43 1.52 1.44 1.32 1.25 1.23 1.23 1.21 1.23 1.18 1.15 1.11 1.03 0.94 0.90 0.97 0.92 0.89
0.44 0.49 0.55 0.59 0.67 0.80 0.74 0.59 0.63 0.62 0.72 0.80 0.83 0.92 0.93 0.85 0.83 0.89 0.83 0.83 0.81 0.75 0.81 0.73 0.92 1.27 1.41 1.47 1.39 1.36 1.41 1.31 1.20 1.20 1.15 1.13 1.11 1.04 0.92 0.84 0.88 0.80 0.76
0.48 0.50 0.55 0.58 0.64 0.68 0.64 0.57 0.60 0.66 0.79 0.82 0.78 0.89 0.92 0.85 0.90 0.96 1.05 1.09 1.01 0.88 1.01 1.02 0.93 1.01 1.13 1.19 1.28 1.30 1.32 1.23 1.17 1.11 0.98 0.91 0.89 0.92 0.93 0.87 0.82 0.81 0.73
0.46 0.48 0.47 0.47 0.52 0.54 0.59 0.50 0.60 0.72 0.77 0.79 0.80 0.85 0.99 0.89 0.86 0.85 0.93 1.05 1.02 0.91 0.80 0.83 0.80 0.70 0.64 0.75 0.94 1.06 1.26 1.32 1.24 1.11 0.95 0.85 0.86 0.84 0.86 0.79 0.70 0.70 0.68